EN

Hourly Weather Barra

Today, 25 January, Monday

Time Temperature Precipitation Wind Pressure Humidity
00:00 +24°C° 0 mm 2 mps 724 mmHg 84%
01:00 +23°C° 0 mm 2 mps 723 mmHg 84%
02:00 +23°C° 0 mm 2 mps 723 mmHg 83%
03:00 +23°C° 0 mm 2 mps 723 mmHg 83%
04:00 +25°C° 0 mm 3 mps 723 mmHg 70%
05:00 +25°C° 0 mm 3 mps 723 mmHg 69%
06:00 +25°C° 0 mm 3 mps 724 mmHg 68%
07:00 +26°C° 0 mm 3 mps 724 mmHg 62%
08:00 +28°C° 0 mm 3 mps 725 mmHg 55%
09:00 +30°C° 0 mm 2 mps 725 mmHg 48%
10:00 +31°C° 0 mm 2 mps 725 mmHg 44%
11:00 +34°C° 0 mm 2 mps 725 mmHg 39%
12:00 +36°C° 0 mm 2 mps 724 mmHg 35%
13:00 +36°C° 0 mm 2 mps 724 mmHg 32%
14:00 +37°C° 0 mm 2 mps 723 mmHg 30%
15:00 +38°C° 0 mm 2 mps 722 mmHg 28%
16:00 +36°C° 0 mm 2 mps 722 mmHg 31%
17:00 +33°C° 0 mm 1 mps 722 mmHg 35%
18:00 +32°C° 0 mm 1 mps 722 mmHg 39%
19:00 +31°C° 0 mm 2 mps 722 mmHg 43%
20:00 +30°C° 0 mm 2 mps 723 mmHg 46%
21:00 +29°C° 0 mm 3 mps 723 mmHg 49%
22:00 +28°C° 0 mm 3 mps 723 mmHg 53%
23:00 +27°C° 0 mm 3 mps 723 mmHg 56%

Tomorrow, 26 January, Tuesday

Time Temperature Precipitation Wind Pressure Humidity
00:00 +27°C° 0 mm 3 mps 723 mmHg 60%
01:00 +26°C° 0 mm 3 mps 723 mmHg 63%
02:00 +25°C° 0 mm 3 mps 723 mmHg 67%
03:00 +25°C° 0 mm 3 mps 723 mmHg 71%
04:00 +24°C° 0 mm 3 mps 723 mmHg 72%
05:00 +24°C° 0 mm 2 mps 723 mmHg 72%
06:00 +23°C° 0 mm 2 mps 724 mmHg 73%
07:00 +26°C° 0 mm 2 mps 724 mmHg 64%
08:00 +28°C° 0 mm 2 mps 725 mmHg 55%
09:00 +30°C° 0 mm 2 mps 726 mmHg 46%
10:00 +32°C° 0 mm 2 mps 725 mmHg 42%
11:00 +34°C° 0 mm 2 mps 725 mmHg 38%
12:00 +36°C° 0 mm 2 mps 724 mmHg 34%
13:00 +36°C° 0 mm 2 mps 724 mmHg 33%
14:00 +37°C° 0 mm 2 mps 723 mmHg 31%
15:00 +37°C° 0 mm 2 mps 722 mmHg 29%
16:00 +36°C° 0 mm 2 mps 722 mmHg 31%
17:00 +35°C° 0 mm 2 mps 722 mmHg 34%
18:00 +32°C° 0 mm 1 mps 722 mmHg 36%
19:00 +31°C° 0 mm 2 mps 722 mmHg 39%
20:00 +30°C° 0 mm 4 mps 723 mmHg 42%
21:00 +28°C° 0 mm 5 mps 723 mmHg 45%
22:00 +28°C° 0 mm 5 mps 723 mmHg 49%
23:00 +27°C° 0 mm 4 mps 723 mmHg 53%

Day after tomorrow, 27 January, Wednesday

Time Temperature Precipitation Wind Pressure Humidity
00:00 +27°C° 0 mm 4 mps 723 mmHg 57%
01:00 +26°C° 0 mm 4 mps 723 mmHg 61%
02:00 +25°C° 0 mm 3 mps 723 mmHg 66%
03:00 +25°C° 0 mm 3 mps 723 mmHg 70%
04:00 +24°C° 0 mm 3 mps 723 mmHg 72%
05:00 +24°C° 0 mm 3 mps 724 mmHg 74%
06:00 +24°C° 0 mm 3 mps 724 mmHg 77%
07:00 +26°C° 0 mm 3 mps 725 mmHg 68%
08:00 +28°C° 0 mm 3 mps 725 mmHg 59%
09:00 +30°C° 0 mm 3 mps 725 mmHg 50%
10:00 +33°C° 0 mm 3 mps 725 mmHg 44%
11:00 +36°C° 0 mm 2 mps 725 mmHg 37%
12:00 +38°C° 0 mm 2 mps 724 mmHg 31%
13:00 +37°C° 0 mm 2 mps 723 mmHg 31%
14:00 +37°C° 0 mm 2 mps 723 mmHg 32%
15:00 +36°C° 0 mm 2 mps 722 mmHg 32%
16:00 +35°C° 0 mm 2 mps 722 mmHg 35%
17:00 +33°C° 0 mm 1 mps 722 mmHg 38%
18:00 +32°C° 0 mm 1 mps 722 mmHg 41%
19:00 +31°C° 0 mm 1 mps 722 mmHg 43%
20:00 +29°C° 0 mm 1 mps 722 mmHg 46%
21:00 +28°C° 0 mm 1 mps 722 mmHg 48%
22:00 +28°C° 0 mm 2 mps 723 mmHg 50%
23:00 +27°C° 0 mm 2 mps 723 mmHg 53%

28 January, Thursday

Time Temperature Precipitation Wind Pressure Humidity
00:00 +27°C° 0 mm 3 mps 723 mmHg 55%
01:00 +27°C° 0 mm 3 mps 723 mmHg 57%
02:00 +27°C° 0 mm 4 mps 723 mmHg 60%
03:00 +26°C° 0 mm 5 mps 723 mmHg 62%
04:00 +26°C° 0 mm 4 mps 723 mmHg 66%
05:00 +25°C° 0 mm 4 mps 723 mmHg 70%
06:00 +24°C° 0 mm 3 mps 724 mmHg 74%
07:00 +27°C° 0 mm 3 mps 724 mmHg 66%
08:00 +29°C° 0 mm 3 mps 724 mmHg 58%
09:00 +31°C° 0 mm 3 mps 725 mmHg 49%
10:00 +33°C° 0 mm 3 mps 725 mmHg 45%
11:00 +35°C° 0 mm 3 mps 724 mmHg 40%
12:00 +36°C° 0 mm 3 mps 724 mmHg 35%
13:00 +36°C° 0 mm 2 mps 723 mmHg 34%
14:00 +37°C° 0 mm 2 mps 722 mmHg 33%
15:00 +37°C° 0 mm 2 mps 721 mmHg 32%

29 January, Friday

Time Temperature Precipitation Wind Pressure Humidity

30 January, Saturday

Time Temperature Precipitation Wind Pressure Humidity
Show more

We Need Your Consent

Meteoprog and our Service Providers may store and access personal data such as cookies, device identifiers or other similar technologies on your device and process such data to personalise content and ads, as well as provide social media features and to analyse the traffic.

  • Store and/or access information on your device

    Cookies, device identifiers or other information can be stored or accessed on your device for the purposes indicated above.

  • Personalised ads and content, ad and content measurement, audience insights, and products development

    Ads and content can be personalised based on a profile. More data can be added to better personalise ads and content. Ad and content performance can be measured. Insights about the audience who saw the ads and content can be derived. Such data can be used to develop or improve user’s experience, systems and software.

By clicking ‘I Agree’ you will allow the use of indicated cookies, device identifiers, web beacons or other similar technologies. Your settings can be changed in the browser on your device.

For certain purposes, legitimate interests may be relied on, rather than consent. You can read more about this in our Privacy and Cookie Policy.